EZY1231 LEAL-EGKK

Flight info

Callsign EZY1231
Flight time N/A
Altitude 38000
Route MITOS N608 COMPI Y90 USKAR DCT MOPAS DCT GIROM DCT GONUP DCT MANAK DCT EPAPU UM184 EKRAS UT507 REVTU/N0432F340 UP88 VASUX
Aircraft A20N/M-SDE2E3FGHIRWXY/LB1

Departure

Time N/A
Airport Alicante-Elche Miguel Hernández Airport (LEAL)

Arrival

Time 2026-05-05 12:01
Airport London Gatwick Airport (EGKK)
Time Latitude Longitude Altitude Speed Heading
2026-05-05 11:50 50.92180 -0.27083 5742 ft 321 kts 223°
2026-05-05 11:50 50.90604 -0.29423 5621 ft 298 kts 223°
2026-05-05 11:50 50.89143 -0.31593 5496 ft 278 kts 223°
2026-05-05 11:51 50.87071 -0.36061 5241 ft 246 kts 262°
2026-05-05 11:51 50.87191 -0.38797 5146 ft 257 kts 289°
2026-05-05 11:51 50.87751 -0.41477 5024 ft 254 kts 291°
2026-05-05 11:52 50.88308 -0.44099 4919 ft 254 kts 291°
2026-05-05 11:52 50.89040 -0.46609 4797 ft 250 kts 312°
2026-05-05 11:52 50.90383 -0.48267 4708 ft 246 kts 339°
2026-05-05 11:52 50.91973 -0.49306 4907 ft 249 kts 341°
2026-05-05 11:53 50.93533 -0.50307 4976 ft 233 kts 341°
2026-05-05 11:53 50.95030 -0.51275 4995 ft 234 kts 341°
2026-05-05 11:53 50.96547 -0.52244 4997 ft 235 kts 341°
2026-05-05 11:53 50.98047 -0.53234 4976 ft 231 kts 341°
2026-05-05 11:54 50.99530 -0.54192 4598 ft 230 kts 341°
2026-05-05 11:54 51.01002 -0.55140 4197 ft 226 kts 341°
2026-05-05 11:54 51.02447 -0.56073 3734 ft 224 kts 341°
2026-05-05 11:54 51.03884 -0.56990 3306 ft 221 kts 341°
2026-05-05 11:55 51.05301 -0.57810 3185 ft 215 kts 352°
2026-05-05 11:55 51.06770 -0.57604 3083 ft 212 kts 24°
2026-05-05 11:55 51.07859 -0.56146 3001 ft 202 kts 59°
2026-05-05 11:55 51.08338 -0.54132 2995 ft 188 kts 70°
2026-05-05 11:56 51.08840 -0.52300 2994 ft 173 kts 63°
2026-05-05 11:56 51.09342 -0.50553 3014 ft 181 kts 63°
2026-05-05 11:56 51.09861 -0.48723 3014 ft 179 kts 63°
2026-05-05 11:56 51.10364 -0.46955 3001 ft 176 kts 63°
2026-05-05 11:57 51.10878 -0.45142 3001 ft 178 kts 63°
2026-05-05 11:57 51.11347 -0.43329 2998 ft 180 kts 69°
2026-05-05 11:57 51.11697 -0.41431 2913 ft 179 kts 73°
2026-05-05 11:57 51.11981 -0.39503 2668 ft 179 kts 74°
2026-05-05 11:58 51.12249 -0.37592 2430 ft 174 kts 75°
2026-05-05 11:58 51.12506 -0.35744 2195 ft 168 kts 74°
2026-05-05 11:58 51.12752 -0.33969 1969 ft 160 kts 74°
2026-05-05 11:58 51.12977 -0.32328 1766 ft 146 kts 74°
2026-05-05 11:59 51.13212 -0.30668 1555 ft 156 kts 74°
2026-05-05 11:59 51.13433 -0.29063 1320 ft 141 kts 73°
2026-05-05 11:59 51.13656 -0.27625 1112 ft 130 kts 75°
2026-05-05 11:59 51.13841 -0.26202 943 ft 132 kts 75°
2026-05-05 12:00 51.14044 -0.24750 811 ft 139 kts 75°
2026-05-05 12:00 51.14177 -0.23765 673 ft 137 kts 75°
2026-05-05 12:00 51.14437 -0.21784 425 ft 137 kts 75°
2026-05-05 12:00 51.14571 -0.20796 269 ft 138 kts 74°
2026-05-05 12:01 51.14775 -0.19372 208 ft 119 kts 74°
2026-05-05 12:01 51.14928 -0.18539 209 ft 47 kts 52°
2026-05-05 12:01 51.15054 -0.18287 211 ft 22 kts 51°
2026-05-05 12:01 51.15118 -0.18194 214 ft 1 kts 21°
2026-05-05 12:02 51.15126 -0.18191 213 ft 3 kts 14°
2026-05-05 12:02 51.15130 -0.18190 204 ft 0 kts
2026-05-05 12:02 51.15134 -0.18191 204 ft 2 kts 359°
2026-05-05 12:02 51.15164 -0.18198 204 ft 6 kts 349°
2026-05-05 12:03 51.15217 -0.18217 203 ft 9 kts 347°
2026-05-05 12:03 51.15291 -0.18243 206 ft 12 kts 347°
2026-05-05 12:03 51.15375 -0.18273 203 ft 9 kts 347°
2026-05-05 12:03 51.15433 -0.18240 212 ft 10 kts 51°
2026-05-05 12:04 51.15454 -0.18121 209 ft 13 kts 78°
2026-05-05 12:04 51.15474 -0.17973 206 ft 15 kts 77°
2026-05-05 12:04 51.15498 -0.17829 210 ft 0 kts 45°
2026-05-05 12:04 51.15514 -0.17809 216 ft 6 kts 32°
2026-05-05 12:05 51.15559 -0.17815 203 ft 0 kts 347°